BAW506 EGLL-LPPT

Flight info

Callsign BAW506
Flight time 2h 51m
Altitude 35000
Route GOGSI2G GOGSI N621 SAM M195 LORKU DCT BALDA DCT ABUPI DCT BELDU DCT XAMAX XAMAX2A
Aircraft A320/M-SDE3FGIJ1KRWXY/SB1

Departure

Time 2026-05-04 14:26
Airport London Heathrow Airport (EGLL)

Arrival

Time 2026-05-04 17:18
Airport Lisbon Humberto Delgado Airport (LPPT)
Time Latitude Longitude Altitude Speed Heading
2026-05-04 13:38 51.47087 -0.48584 90 ft 0 kts 269°
2026-05-04 14:07 51.47087 -0.48572 86 ft 4 kts 270°
2026-05-04 14:08 51.47087 -0.48530 86 ft 2 kts 270°
2026-05-04 14:08 51.47086 -0.48496 86 ft 4 kts 295°
2026-05-04 14:08 51.47070 -0.48472 89 ft 4 kts 356°
2026-05-04 14:08 51.47049 -0.48471 89 ft 1 kts 360°
2026-05-04 14:12 51.47052 -0.48471 89 ft 2 kts 360°
2026-05-04 14:12 51.47095 -0.48472 89 ft 9 kts 359°
2026-05-04 14:12 51.47246 -0.48474 86 ft 13 kts 358°
2026-05-04 14:13 51.47323 -0.48474 86 ft 7 kts
2026-05-04 14:13 51.47381 -0.48475 86 ft 8 kts 359°
2026-05-04 14:13 51.47386 -0.48475 86 ft 0 kts 359°
2026-05-04 14:14 51.47389 -0.48475 86 ft 2 kts 359°
2026-05-04 14:14 51.47483 -0.48428 88 ft 11 kts 70°
2026-05-04 14:14 51.47488 -0.48289 88 ft 14 kts 89°
2026-05-04 14:15 51.47490 -0.47945 86 ft 17 kts 91°
2026-05-04 14:15 51.47491 -0.47520 86 ft 19 kts 89°
2026-05-04 14:16 51.47492 -0.47266 86 ft 12 kts 90°
2026-05-04 14:16 51.47492 -0.47117 86 ft 14 kts 90°
2026-05-04 14:17 51.47505 -0.46757 88 ft 18 kts 66°
2026-05-04 14:17 51.47516 -0.46554 86 ft 19 kts 89°
2026-05-04 14:17 51.47518 -0.46084 86 ft 22 kts 88°
2026-05-04 14:18 51.47521 -0.45854 89 ft 20 kts 89°
2026-05-04 14:18 51.47510 -0.45655 87 ft 6 kts 99°
2026-05-04 14:19 51.47508 -0.45474 88 ft 10 kts 89°
2026-05-04 14:19 51.47509 -0.45351 88 ft 12 kts 89°
2026-05-04 14:19 51.47513 -0.45220 90 ft 11 kts 70°
2026-05-04 14:19 51.47577 -0.45159 88 ft 11 kts 37°
2026-05-04 14:20 51.47598 -0.45034 86 ft 13 kts 90°
2026-05-04 14:20 51.47599 -0.44882 86 ft 15 kts 89°
2026-05-04 14:20 51.47600 -0.44711 86 ft 15 kts 89°
2026-05-04 14:21 51.47603 -0.44340 86 ft 19 kts 89°
2026-05-04 14:21 51.47592 -0.44133 86 ft 17 kts 88°
2026-05-04 14:21 51.47594 -0.43971 86 ft 14 kts 89°
2026-05-04 14:21 51.47595 -0.43806 86 ft 15 kts 90°
2026-05-04 14:22 51.47595 -0.43706 90 ft 0 kts 89°
2026-05-04 14:22 51.47595 -0.43702 86 ft 1 kts 89°
2026-05-04 14:23 51.47596 -0.43637 90 ft 7 kts 89°
2026-05-04 14:23 51.47608 -0.43550 87 ft 8 kts 56°
2026-05-04 14:23 51.47615 -0.43541 89 ft 0 kts 41°
2026-05-04 14:24 51.47615 -0.43540 89 ft 0 kts 41°
2026-05-04 14:24 51.47635 -0.43507 89 ft 9 kts 50°
2026-05-04 14:24 51.47684 -0.43417 88 ft 11 kts 28°
2026-05-04 14:24 51.47757 -0.43442 90 ft 13 kts 304°
2026-05-04 14:25 51.47768 -0.43539 87 ft 0 kts 269°
2026-05-04 14:25 51.47768 -0.43613 90 ft 30 kts 269°
2026-05-04 14:26 51.47768 -0.44331 89 ft 95 kts 271°
2026-05-04 14:26 51.47769 -0.45688 87 ft 145 kts 270°
2026-05-04 14:26 51.47795 -0.47401 477 ft 150 kts 274°
2026-05-04 14:26 51.47794 -0.49092 1026 ft 153 kts 270°
2026-05-04 14:27 51.47765 -0.50827 1431 ft 163 kts 269°
2026-05-04 14:27 51.47729 -0.52771 1676 ft 186 kts 266°
2026-05-04 14:27 51.47434 -0.54913 2033 ft 209 kts 256°
2026-05-04 14:27 51.47050 -0.57280 2478 ft 229 kts 256°
2026-05-04 14:28 51.46643 -0.59874 2931 ft 250 kts 256°
2026-05-04 14:28 51.46209 -0.62674 3530 ft 264 kts 256°
2026-05-04 14:28 51.45801 -0.65336 4324 ft 266 kts 256°
2026-05-04 14:28 51.45470 -0.68262 5226 ft 268 kts 268°
2026-05-04 14:29 51.45413 -0.74281 6929 ft 271 kts 268°
2026-05-04 14:29 51.44963 -0.80303 8506 ft 276 kts 246°
2026-05-04 14:30 51.43953 -0.82904 9282 ft 278 kts 227°
2026-05-04 14:30 51.42508 -0.84998 10050 ft 280 kts 221°
2026-05-04 14:30 51.39210 -0.89027 10561 ft 321 kts 214°
2026-05-04 14:31 51.37309 -0.91056 10953 ft 333 kts 213°
2026-05-04 14:31 51.33409 -0.95259 12204 ft 342 kts 214°
2026-05-04 14:32 51.29455 -0.99620 13510 ft 348 kts 214°
2026-05-04 14:32 51.27471 -1.01779 14134 ft 351 kts 213°
2026-05-04 14:32 51.25398 -1.03957 14736 ft 354 kts 212°
2026-05-04 14:32 51.23345 -1.06068 15309 ft 356 kts 212°
2026-05-04 14:33 51.21221 -1.08238 15890 ft 359 kts 212°
2026-05-04 14:33 51.19113 -1.10386 16447 ft 362 kts 212°
2026-05-04 14:33 51.16980 -1.12563 17031 ft 365 kts 212°
2026-05-04 14:33 51.14843 -1.14751 17616 ft 367 kts 212°
2026-05-04 14:34 51.12707 -1.16940 18202 ft 370 kts 211°
2026-05-04 14:34 51.10534 -1.19167 18740 ft 373 kts 212°
2026-05-04 14:34 51.08664 -1.21080 19214 ft 375 kts 212°
2026-05-04 14:34 51.06470 -1.23328 19787 ft 377 kts 212°
2026-05-04 14:35 51.04255 -1.25599 20352 ft 379 kts 212°
2026-05-04 14:35 51.02032 -1.27874 20909 ft 381 kts 212°
2026-05-04 14:35 50.99767 -1.30184 21445 ft 383 kts 212°
2026-05-04 14:35 50.97895 -1.32095 21875 ft 385 kts 212°
2026-05-04 14:36 50.95639 -1.34399 22361 ft 387 kts 212°
2026-05-04 14:36 50.93412 -1.36680 22849 ft 389 kts 213°
2026-05-04 14:36 50.91406 -1.38759 23282 ft 391 kts 213°
2026-05-04 14:36 50.89130 -1.41134 23738 ft 393 kts 213°
2026-05-04 14:37 50.86837 -1.43530 24111 ft 396 kts 213°
2026-05-04 14:37 50.84537 -1.45935 24528 ft 397 kts 213°
2026-05-04 14:37 50.82233 -1.48339 24930 ft 398 kts 213°
2026-05-04 14:37 50.79941 -1.50727 25321 ft 399 kts 212°
2026-05-04 14:38 50.77617 -1.53141 25710 ft 401 kts 212°
2026-05-04 14:38 50.75280 -1.55558 26094 ft 402 kts 212°
2026-05-04 14:38 50.72934 -1.57978 26483 ft 404 kts 212°
2026-05-04 14:38 50.70796 -1.60175 26804 ft 405 kts 212°
2026-05-04 14:39 50.68411 -1.62633 27209 ft 406 kts 212°
2026-05-04 14:39 50.66040 -1.65077 27576 ft 408 kts 212°
2026-05-04 14:39 50.63662 -1.67523 27929 ft 409 kts 212°
2026-05-04 14:40 50.59695 -1.71596 28598 ft 410 kts 211°
2026-05-04 14:40 50.57588 -1.73757 28940 ft 410 kts 211°
2026-05-04 14:40 50.56079 -1.75301 29258 ft 409 kts 211°
2026-05-04 14:40 50.54886 -1.76523 29517 ft 407 kts 211°
2026-05-04 14:41 50.53712 -1.77723 29773 ft 406 kts 211°
2026-05-04 14:41 50.52546 -1.78916 30027 ft 405 kts 210°
2026-05-04 14:41 50.49416 -1.82110 30555 ft 404 kts 210°
2026-05-04 14:42 50.46788 -1.84784 30936 ft 405 kts 210°
2026-05-04 14:42 50.45402 -1.86192 31136 ft 406 kts 211°
2026-05-04 14:42 50.44260 -1.87352 31249 ft 408 kts 211°
2026-05-04 14:43 50.43258 -1.88368 31363 ft 409 kts 211°
2026-05-04 14:43 50.42030 -1.89615 31519 ft 410 kts 211°
2026-05-04 14:43 50.41013 -1.90646 31651 ft 410 kts 211°
2026-05-04 14:43 50.39941 -1.91734 31803 ft 411 kts 211°
2026-05-04 14:44 50.39000 -1.92689 31947 ft 411 kts 211°
2026-05-04 14:44 50.38014 -1.93690 32098 ft 411 kts 211°
2026-05-04 14:44 50.36920 -1.94799 32256 ft 411 kts 211°
2026-05-04 14:44 50.35949 -1.95783 32394 ft 411 kts 211°
2026-05-04 14:45 50.35057 -1.96688 32517 ft 412 kts 211°
2026-05-04 14:45 50.34151 -1.97605 32640 ft 412 kts 211°
2026-05-04 14:45 50.33114 -1.98657 32783 ft 412 kts 211°
2026-05-04 14:45 50.32182 -1.99602 32910 ft 413 kts 211°
2026-05-04 14:46 50.31019 -2.00781 33069 ft 413 kts 211°
2026-05-04 14:46 50.30011 -2.01802 33188 ft 414 kts 211°
2026-05-04 14:46 50.29012 -2.02813 33346 ft 414 kts 211°
2026-05-04 14:46 50.28079 -2.03756 33464 ft 415 kts 211°
2026-05-04 14:47 50.27105 -2.04738 33592 ft 415 kts 211°
2026-05-04 14:47 50.26167 -2.05681 33723 ft 416 kts 211°
2026-05-04 14:47 50.25211 -2.06642 33850 ft 416 kts 211°
2026-05-04 14:47 50.24265 -2.07592 33969 ft 416 kts 211°
2026-05-04 14:48 50.23317 -2.08538 34092 ft 417 kts 211°
2026-05-04 14:48 50.22363 -2.09483 34177 ft 417 kts 211°
2026-05-04 14:48 50.20482 -2.11331 34376 ft 418 kts 211°
2026-05-04 14:49 50.18611 -2.13154 34577 ft 418 kts 210°
2026-05-04 14:49 50.16725 -2.14981 34776 ft 418 kts 210°
2026-05-04 14:50 50.15669 -2.16001 34887 ft 418 kts 210°
2026-05-04 14:50 50.14711 -2.16924 34943 ft 419 kts 210°
2026-05-04 14:50 50.12788 -2.18780 34991 ft 421 kts 210°
2026-05-04 14:51 50.10730 -2.20767 35011 ft 426 kts 210°
2026-05-04 14:51 50.08548 -2.22876 35012 ft 429 kts 210°
2026-05-04 14:52 50.06241 -2.25112 35007 ft 430 kts 211°
2026-05-04 14:52 50.03854 -2.27429 35009 ft 431 kts 211°
2026-05-04 14:53 50.01507 -2.29700 35014 ft 431 kts 210°
2026-05-04 14:53 49.98865 -2.32253 35008 ft 432 kts 210°
2026-05-04 14:54 49.96450 -2.34580 35006 ft 432 kts 210°
2026-05-04 14:54 49.93339 -2.37397 35008 ft 432 kts 204°
2026-05-04 14:55 49.88196 -2.40871 35024 ft 432 kts 202°
2026-05-04 14:55 49.82694 -2.44523 35029 ft 432 kts 202°
2026-05-04 14:56 49.77168 -2.48175 35033 ft 432 kts 202°
2026-05-04 14:56 49.71636 -2.51829 35035 ft 432 kts 202°
2026-05-04 14:57 49.66102 -2.55485 35036 ft 432 kts 202°
2026-05-04 14:57 49.60571 -2.59132 35024 ft 432 kts 202°
2026-05-04 14:58 49.55038 -2.62762 35024 ft 432 kts 202°
2026-05-04 14:58 49.49508 -2.66374 35024 ft 432 kts 202°
2026-05-04 14:59 49.43972 -2.69994 35032 ft 432 kts 202°
2026-05-04 15:00 49.35654 -2.75421 35018 ft 433 kts 201°
2026-05-04 15:00 49.30130 -2.78995 35015 ft 434 kts 201°
2026-05-04 15:01 49.21786 -2.84385 35012 ft 434 kts 201°
2026-05-04 15:01 49.16218 -2.87991 35012 ft 434 kts 201°
2026-05-04 15:02 49.10651 -2.91587 35011 ft 434 kts 201°
2026-05-04 15:02 49.05076 -2.95168 35011 ft 434 kts 201°
2026-05-04 15:03 48.99496 -2.98737 35004 ft 435 kts 201°
2026-05-04 15:03 48.93914 -3.02293 35006 ft 435 kts 201°
2026-05-04 15:04 48.88365 -3.05838 35008 ft 435 kts 201°
2026-05-04 15:04 48.82778 -3.09382 35011 ft 436 kts 201°
2026-05-04 15:05 48.77173 -3.12931 35010 ft 437 kts 201°
2026-05-04 15:05 48.71573 -3.16484 35008 ft 437 kts 201°
2026-05-04 15:06 48.65957 -3.20043 35005 ft 437 kts 201°
2026-05-04 15:07 48.57539 -3.25336 35004 ft 437 kts 201°
2026-05-04 15:07 48.51927 -3.28849 35004 ft 437 kts 201°
2026-05-04 15:08 48.46315 -3.32362 35002 ft 437 kts 201°
2026-05-04 15:08 48.40707 -3.35866 35001 ft 436 kts 201°
2026-05-04 15:09 48.35100 -3.39360 35001 ft 436 kts 201°
2026-05-04 15:09 48.29492 -3.42848 34998 ft 436 kts 201°
2026-05-04 15:10 48.21110 -3.48047 35006 ft 437 kts 201°
2026-05-04 15:11 48.12680 -3.53249 34998 ft 437 kts 201°
2026-05-04 15:11 48.07051 -3.56702 34997 ft 437 kts 201°
2026-05-04 15:12 48.01434 -3.60146 34997 ft 436 kts 201°
2026-05-04 15:12 47.95817 -3.63588 34997 ft 437 kts 201°
2026-05-04 15:13 47.90196 -3.67028 35002 ft 437 kts 201°
2026-05-04 15:13 47.84580 -3.70460 34999 ft 436 kts 201°
2026-05-04 15:14 47.78956 -3.73886 35005 ft 436 kts 201°
2026-05-04 15:14 47.73335 -3.77293 34999 ft 436 kts 201°
2026-05-04 15:15 47.67719 -3.80683 35001 ft 436 kts 201°
2026-05-04 15:15 47.62126 -3.84065 34992 ft 437 kts 201°
2026-05-04 15:16 47.56039 -3.87737 34994 ft 437 kts 201°
2026-05-04 15:17 47.50380 -3.91139 34998 ft 437 kts 201°
2026-05-04 15:17 47.45701 -3.93942 34997 ft 438 kts 201°
2026-05-04 15:18 47.42972 -3.95577 34994 ft 438 kts 201°
2026-05-04 15:19 47.39151 -3.97866 34999 ft 437 kts 201°
2026-05-04 15:19 47.34711 -4.00516 34995 ft 437 kts 200°
2026-05-04 15:20 47.31117 -4.02658 34995 ft 437 kts 201°
2026-05-04 15:20 47.28163 -4.04421 34994 ft 437 kts 201°
2026-05-04 15:21 47.25622 -4.05937 34993 ft 437 kts 201°
2026-05-04 15:22 47.21985 -4.08100 34992 ft 437 kts 200°
2026-05-04 15:22 47.15544 -4.11919 34990 ft 437 kts 200°
2026-05-04 15:23 47.10946 -4.14638 35003 ft 438 kts 200°
2026-05-04 15:23 47.08396 -4.16142 34999 ft 438 kts 200°
2026-05-04 15:24 47.01762 -4.20047 34995 ft 438 kts 200°
2026-05-04 15:25 46.98381 -4.22035 35000 ft 438 kts 200°
2026-05-04 15:26 46.90654 -4.26577 34994 ft 439 kts 200°
2026-05-04 15:26 46.84061 -4.30428 35005 ft 438 kts 200°
2026-05-04 15:27 46.78347 -4.33753 35004 ft 438 kts 201°
2026-05-04 15:28 46.73097 -4.36821 35004 ft 438 kts 201°
2026-05-04 15:29 46.64647 -4.41737 35007 ft 438 kts 201°
2026-05-04 15:30 46.53266 -4.48326 35009 ft 438 kts 200°
2026-05-04 15:31 46.46134 -4.52439 35010 ft 438 kts 201°
2026-05-04 15:32 46.35605 -4.58481 35008 ft 437 kts 201°
2026-05-04 15:34 46.24234 -4.64997 35009 ft 436 kts 201°
2026-05-04 15:34 46.16049 -4.69660 35010 ft 435 kts 201°
2026-05-04 15:35 46.09281 -4.73499 35010 ft 435 kts 200°
2026-05-04 15:36 46.02014 -4.77620 35021 ft 435 kts 201°
2026-05-04 15:36 45.96790 -4.80573 35015 ft 436 kts 201°
2026-05-04 15:37 45.91150 -4.83756 35010 ft 436 kts 201°
2026-05-04 15:37 45.85842 -4.86742 35005 ft 436 kts 201°
2026-05-04 15:38 45.80728 -4.89617 35006 ft 436 kts 201°
2026-05-04 15:38 45.75723 -4.92428 35007 ft 436 kts 201°
2026-05-04 15:39 45.71033 -4.95055 35010 ft 436 kts 201°
2026-05-04 15:40 45.62550 -4.99796 35011 ft 436 kts 201°
2026-05-04 15:40 45.57889 -5.02381 35009 ft 435 kts 201°
2026-05-04 15:41 45.52278 -5.05490 35013 ft 435 kts 201°
2026-05-04 15:41 45.46633 -5.08608 35023 ft 435 kts 201°
2026-05-04 15:42 45.40985 -5.11739 35019 ft 435 kts 201°
2026-05-04 15:42 45.35344 -5.14861 35019 ft 435 kts 201°
2026-05-04 15:43 45.29703 -5.17970 35021 ft 434 kts 201°
2026-05-04 15:43 45.24066 -5.21064 35017 ft 434 kts 201°
2026-05-04 15:44 45.18493 -5.24127 35022 ft 434 kts 201°
2026-05-04 15:44 45.12862 -5.27213 35020 ft 434 kts 201°
2026-05-04 15:45 45.07232 -5.30283 35020 ft 434 kts 201°
2026-05-04 15:45 45.01600 -5.33342 35018 ft 433 kts 201°
2026-05-04 15:46 44.95970 -5.36406 35022 ft 433 kts 201°
2026-05-04 15:46 44.90379 -5.39449 35020 ft 434 kts 201°
2026-05-04 15:47 44.84732 -5.42513 35012 ft 435 kts 201°
2026-05-04 15:47 44.79084 -5.45556 35012 ft 435 kts 201°
2026-05-04 15:48 44.73423 -5.48597 35013 ft 435 kts 201°
2026-05-04 15:48 44.64945 -5.53154 35016 ft 435 kts 201°
2026-05-04 15:49 44.59290 -5.56222 35018 ft 435 kts 203°
2026-05-04 15:49 44.53744 -5.59599 35018 ft 435 kts 205°
2026-05-04 15:50 44.48245 -5.63125 35018 ft 435 kts 205°
2026-05-04 15:50 44.42729 -5.66600 35019 ft 435 kts 205°
2026-05-04 15:51 44.37193 -5.70000 35020 ft 434 kts 204°
2026-05-04 15:51 44.31648 -5.73378 35022 ft 435 kts 205°
2026-05-04 15:52 44.26101 -5.76769 35009 ft 436 kts 205°
2026-05-04 15:52 44.20550 -5.80172 35013 ft 436 kts 205°
2026-05-04 15:53 44.14989 -5.83581 35020 ft 436 kts 205°
2026-05-04 15:53 44.09430 -5.86965 35023 ft 436 kts 205°
2026-05-04 15:54 44.03866 -5.90334 35021 ft 436 kts 205°
2026-05-04 15:54 43.98333 -5.93678 35026 ft 436 kts 205°
2026-05-04 15:55 43.92758 -5.97049 35030 ft 436 kts 205°
2026-05-04 15:55 43.87193 -6.00419 35035 ft 436 kts 205°
2026-05-04 15:56 43.81631 -6.03773 35035 ft 436 kts 205°
2026-05-04 15:56 43.76066 -6.07116 35038 ft 436 kts 205°
2026-05-04 15:57 43.70499 -6.10454 35049 ft 436 kts 205°
2026-05-04 15:57 43.64933 -6.13784 35044 ft 436 kts 206°
2026-05-04 15:58 43.59372 -6.17115 35047 ft 435 kts 206°
2026-05-04 15:58 43.53858 -6.20414 35048 ft 434 kts 206°
2026-05-04 15:59 43.48276 -6.23740 35047 ft 434 kts 206°
2026-05-04 15:59 43.42767 -6.27003 35037 ft 434 kts 206°
2026-05-04 16:00 43.37227 -6.30276 35041 ft 433 kts 206°
2026-05-04 16:00 43.31691 -6.33554 35044 ft 433 kts 206°
2026-05-04 16:01 43.26157 -6.36824 35047 ft 433 kts 206°
2026-05-04 16:01 43.20625 -6.40082 35019 ft 433 kts 206°
2026-05-04 16:02 43.15092 -6.43339 35021 ft 433 kts 206°
2026-05-04 16:03 43.06777 -6.48221 35028 ft 433 kts 206°
2026-05-04 16:03 43.01221 -6.51471 35011 ft 434 kts 206°
2026-05-04 16:04 42.95663 -6.54719 35021 ft 434 kts 206°
2026-05-04 16:04 42.87363 -6.59552 35018 ft 434 kts 206°
2026-05-04 16:05 42.81806 -6.62781 34993 ft 434 kts 206°
2026-05-04 16:06 42.73480 -6.67612 35009 ft 433 kts 206°
2026-05-04 16:07 42.62383 -6.74028 35036 ft 433 kts 206°
2026-05-04 16:08 42.51285 -6.80424 35033 ft 433 kts 206°
2026-05-04 16:09 42.37434 -6.88357 35025 ft 433 kts 207°
2026-05-04 16:10 42.26330 -6.94697 35027 ft 433 kts 207°
2026-05-04 16:11 42.15230 -7.01001 35027 ft 433 kts 207°
2026-05-04 16:12 41.98552 -7.10433 35025 ft 432 kts 207°
2026-05-04 16:13 41.87508 -7.16654 35025 ft 431 kts 207°
2026-05-04 16:14 41.76531 -7.23005 35017 ft 425 kts 215°
2026-05-04 16:15 41.70030 -7.30696 35021 ft 415 kts 230°
2026-05-04 16:16 41.66016 -7.36257 35015 ft 415 kts 230°
2026-05-04 16:17 41.55973 -7.50120 35032 ft 415 kts 230°
2026-05-04 16:18 41.47972 -7.61140 35039 ft 413 kts 230°
2026-05-04 16:19 41.37957 -7.74853 35049 ft 412 kts 229°
2026-05-04 16:20 41.30495 -7.80860 35043 ft 426 kts 209°
2026-05-04 16:20 41.25067 -7.84010 35035 ft 426 kts 210°
2026-05-04 16:22 41.11494 -7.91900 35052 ft 426 kts 210°
2026-05-04 16:23 40.96126 -8.00782 35045 ft 425 kts 210°
2026-05-04 16:25 40.79858 -8.10145 35044 ft 424 kts 210°
2026-05-04 16:26 40.60898 -8.20976 35030 ft 424 kts 211°
2026-05-04 16:28 40.47393 -8.28676 35071 ft 423 kts 211°
2026-05-04 16:29 40.28552 -8.39327 35049 ft 423 kts 211°
2026-05-04 16:30 40.20381 -8.43942 32780 ft 430 kts 211°
2026-05-04 16:31 40.14901 -8.47010 31416 ft 423 kts 211°
2026-05-04 16:31 40.06919 -8.51465 29801 ft 409 kts 211°
2026-05-04 16:32 39.98421 -8.53234 28394 ft 426 kts 185°
2026-05-04 16:33 39.92544 -8.52730 27510 ft 421 kts 185°
2026-05-04 16:33 39.86725 -8.52245 26701 ft 416 kts 184°
2026-05-04 16:34 39.81038 -8.51772 26030 ft 405 kts 184°
2026-05-04 16:34 39.78280 -8.51666 25900 ft 386 kts 192°
2026-05-04 16:35 39.71321 -8.54888 25196 ft 339 kts 219°
2026-05-04 16:35 39.65386 -8.59579 24352 ft 331 kts 218°
2026-05-04 16:36 39.63394 -8.61147 24075 ft 330 kts 218°
2026-05-04 16:36 39.59474 -8.64229 23484 ft 328 kts 218°
2026-05-04 16:37 39.55553 -8.67306 22918 ft 326 kts 218°
2026-05-04 16:37 39.53616 -8.68825 22645 ft 325 kts 218°
2026-05-04 16:37 39.49753 -8.71849 22072 ft 323 kts 218°
2026-05-04 16:38 39.45905 -8.74857 21539 ft 323 kts 218°
2026-05-04 16:39 39.40205 -8.79404 20728 ft 315 kts 225°
2026-05-04 16:39 39.37240 -8.83418 20177 ft 307 kts 234°
2026-05-04 16:40 39.34391 -8.87488 19415 ft 307 kts 226°
2026-05-04 16:40 39.30939 -8.90731 18656 ft 308 kts 221°
2026-05-04 16:41 39.27446 -8.93919 17847 ft 306 kts 220°
2026-05-04 16:41 39.22255 -8.98663 16635 ft 303 kts 221°
2026-05-04 16:42 39.17112 -9.03348 15475 ft 300 kts 220°
2026-05-04 16:43 39.13716 -9.06444 14720 ft 299 kts 220°
2026-05-04 16:43 39.10328 -9.09522 13995 ft 298 kts 220°
2026-05-04 16:43 39.08633 -9.11057 13599 ft 297 kts 220°
2026-05-04 16:44 39.01923 -9.17138 12145 ft 293 kts 219°
2026-05-04 16:45 38.98952 -9.19827 11525 ft 291 kts 219°
2026-05-04 16:46 38.94038 -9.24283 11106 ft 289 kts 219°
2026-05-04 16:46 38.90897 -9.27123 11110 ft 290 kts 219°
2026-05-04 16:47 38.88375 -9.29395 11112 ft 290 kts 219°
2026-05-04 16:47 38.86097 -9.31449 11111 ft 290 kts 219°
2026-05-04 16:48 38.81973 -9.35143 11108 ft 261 kts 219°
2026-05-04 16:48 38.81110 -9.35914 11013 ft 259 kts 220°
2026-05-04 16:49 38.79620 -9.37254 10760 ft 256 kts 219°
2026-05-04 16:49 38.78289 -9.38450 10532 ft 254 kts 220°
2026-05-04 16:50 38.76557 -9.40009 10247 ft 252 kts 219°
2026-05-04 16:50 38.75186 -9.41244 10033 ft 250 kts 220°
2026-05-04 16:51 38.73756 -9.42531 9846 ft 250 kts 219°
2026-05-04 16:51 38.72610 -9.43560 9568 ft 250 kts 219°
2026-05-04 16:51 38.70670 -9.45296 9155 ft 249 kts 218°
2026-05-04 16:52 38.69105 -9.46664 8833 ft 249 kts 213°
2026-05-04 16:52 38.68370 -9.47093 8677 ft 252 kts 201°
2026-05-04 16:53 38.66727 -9.47346 8126 ft 269 kts 174°
2026-05-04 16:53 38.64149 -9.45438 7492 ft 262 kts 127°
2026-05-04 16:54 38.63216 -9.43749 6991 ft 263 kts 124°
2026-05-04 16:55 38.59160 -9.36202 5157 ft 245 kts 124°
2026-05-04 16:55 38.57366 -9.32851 4845 ft 212 kts 118°
2026-05-04 16:56 38.57347 -9.29406 4202 ft 195 kts 65°
2026-05-04 16:56 38.58862 -9.24626 3898 ft 189 kts 48°
2026-05-04 16:57 38.59771 -9.23468 3577 ft 182 kts 26°
2026-05-04 16:57 38.62003 -9.22196 3216 ft 167 kts 17°
2026-05-04 16:58 38.65078 -9.20561 2811 ft 158 kts 15°
2026-05-04 16:58 38.66075 -9.20030 2604 ft 157 kts 16°
2026-05-04 16:59 38.68084 -9.18960 2187 ft 155 kts 17°
2026-05-04 17:00 38.71998 -9.16869 1362 ft 140 kts 17°
2026-05-04 17:00 38.74588 -9.15488 808 ft 131 kts 17°
2026-05-04 17:01 38.76285 -9.14583 456 ft 133 kts 15°
2026-05-04 17:01 38.77887 -9.13493 1354 ft 127 kts 26°
2026-05-04 17:02 38.79249 -9.12189 2531 ft 121 kts 29°
2026-05-04 17:02 38.80923 -9.11024 2822 ft 152 kts 18°
2026-05-04 17:03 38.81938 -9.10400 2982 ft 174 kts 19°
2026-05-04 17:03 38.83128 -9.09685 2977 ft 198 kts 19°
2026-05-04 17:03 38.84691 -9.06735 2986 ft 225 kts 88°
2026-05-04 17:04 38.83532 -9.02925 2977 ft 236 kts 118°
2026-05-04 17:04 38.82182 -8.99916 3234 ft 233 kts 119°
2026-05-04 17:05 38.80540 -8.96324 3731 ft 233 kts 119°
2026-05-04 17:05 38.78884 -8.92727 3976 ft 235 kts 121°
2026-05-04 17:06 38.76171 -8.90873 3981 ft 227 kts 189°
2026-05-04 17:06 38.74678 -8.91421 3984 ft 223 kts 206°
2026-05-04 17:07 38.71843 -8.93031 3982 ft 223 kts 209°
2026-05-04 17:07 38.70914 -8.93587 3980 ft 223 kts 210°
2026-05-04 17:07 38.69037 -8.94703 3978 ft 221 kts 209°
2026-05-04 17:07 38.67638 -8.95535 3982 ft 222 kts 210°
2026-05-04 17:08 38.66229 -8.96352 3987 ft 222 kts 208°
2026-05-04 17:08 38.63433 -8.98015 3985 ft 221 kts 209°
2026-05-04 17:08 38.62043 -8.98858 3988 ft 222 kts 208°
2026-05-04 17:09 38.60649 -8.99706 3987 ft 222 kts 210°
2026-05-04 17:09 38.59250 -9.00538 3989 ft 221 kts 209°
2026-05-04 17:09 38.57868 -9.01347 3987 ft 221 kts 209°
2026-05-04 17:10 38.55108 -9.02946 3988 ft 221 kts 208°
2026-05-04 17:10 38.52226 -9.06635 3771 ft 203 kts 277°
2026-05-04 17:11 38.52588 -9.08319 3577 ft 194 kts 296°
2026-05-04 17:11 38.53152 -9.09847 3456 ft 187 kts 298°
2026-05-04 17:11 38.54277 -9.12667 3089 ft 174 kts 299°
2026-05-04 17:12 38.54830 -9.14040 2988 ft 174 kts 299°
2026-05-04 17:12 38.55937 -9.16795 3002 ft 173 kts 299°
2026-05-04 17:13 38.57646 -9.20808 2984 ft 168 kts 318°
2026-05-04 17:14 38.61041 -9.21336 2500 ft 170 kts 359°
2026-05-04 17:14 38.62262 -9.21265 2500 ft 172 kts 359°
2026-05-04 17:14 38.64619 -9.20816 2507 ft 177 kts 18°
2026-05-04 17:15 38.65755 -9.20199 2501 ft 177 kts 17°
2026-05-04 17:15 38.67909 -9.19050 2237 ft 158 kts 17°
2026-05-04 17:16 38.69944 -9.17966 1797 ft 155 kts 18°
2026-05-04 17:16 38.72774 -9.16455 1204 ft 134 kts 15°
2026-05-04 17:17 38.73630 -9.16000 1019 ft 134 kts 16°
2026-05-04 17:17 38.76219 -9.14623 469 ft 138 kts 16°
2026-05-04 17:18 38.77075 -9.14148 362 ft 123 kts 19°
2026-05-04 17:18 38.78048 -9.13656 367 ft 34 kts 27°
2026-05-04 17:19 38.78178 -9.13459 364 ft 15 kts 177°
2026-05-04 17:19 38.78156 -9.13456 363 ft 0 kts 168°
2026-05-04 17:20 38.78011 -9.13413 356 ft 18 kts 168°
2026-05-04 17:20 38.77868 -9.13373 349 ft 24 kts 167°
2026-05-04 17:21 38.77594 -9.13319 337 ft 15 kts 174°
2026-05-04 17:21 38.77541 -9.13229 337 ft 6 kts 79°
2026-05-04 17:22 38.77547 -9.13192 336 ft 3 kts 78°
2026-05-04 17:22 38.77551 -9.13169 337 ft 1 kts 77°
2026-05-04 17:24 38.77551 -9.13172 337 ft 0 kts 78°